Wind_Speed
10 9 8 7 6 5 6 7 7 7 6 5 5 5 7 7 7 7 5 4 1 2 4 5 6 7 7 6 6 5 5 6 6 6 7 7 8 8 8 8 8 7 7 7 6 5 5 5 7 8 8 8 8 7 6 5 4 3 3 3 4 4 5
10 9 7 6 5 4 6 6 7 7 6 5 4 4 6 7 7 7 6 5 3 1 3 4 5 5 6 7 7 6 6 5 4 4 5 5 6 7 7 7 7 6 7 7 6 5 5 4 6 9 9 9 9 8 7 6 5 5 4 3 4 4 4
10 9 6 5 4 3 4 5 5 6 6 4 3 2 4 5 5 6 5 6 4 2 2 2 3 4 4 6 7 7 6 6 5 5 5 5 5 6 6 5 5 5 6 6 4 4 5 4 5 8 10 10 9 8 8 8 7 6 6 5 5 5 4
11 9 6 5 3 2 2 3 5 7 6 3 1 1 2 4 4 5 5 5 5 2 0 1 1 2 2 3 5 6 7 7 6 6 6 6 5 5 5 4 4 5 4 4 3 4 4 4 4 6 9 10 9 7 7 7 7 7 6 6 6 5 5
12 10 7 5 3 2 1 3 6 7 5 2 0 1 2 3 3 3 4 4 4 4 2 1 1 1 1 2 2 2 2 3 4 5 5 6 5 4 5 5 5 5 5 4 4 3 3 3 4 5 7 8 7 7 6 5 5 5 5 5 5 4 4
13 11 9 7 6 5 3 4 6 7 5 2 2 2 2 3 3 2 3 3 3 3 3 2 2 3 3 3 3 3 4 3 2 2 3 5 5 5 5 5 5 5 5 6 5 4 4 5 5 5 6 7 6 6 7 6 6 4 4 4 3 3 2
13 13 12 9 8 6 5 5 6 7 5 1 2 2 2 3 2 2 2 2 3 3 3 3 3 3 3 4 4 4 4 4 3 3 3 4 5 4 4 4 5 5 6 7 8 8 7 6 6 4 4 5 6 6 7 9 10 8 5 4 2 2 1
15 15 15 12 9 7 6 5 5 6 5 2 1 2 2 3 3 2 2 2 2 3 3 4 4 4 4 4 4 4 4 4 4 4 3 4 4 3 3 4 6 6 7 7 8 9 8 7 6 4 3 3 3 3 5 8 10 8 5 3 3 3 3
15 16 16 14 11 8 6 4 4 5 5 4 1 2 3 4 3 3 3 3 4 4 4 5 5 5 5 5 5 4 4 4 4 4 4 4 5 5 5 6 6 7 8 7 7 8 9 8 7 4 3 6 5 1 2 4 6 6 3 3 3 3 3
15 17 17 15 12 9 6 4 3 3 4 3 2 3 5 6 5 5 5 6 6 6 6 7 8 8 8 7 7 6 6 5 5 5 5 5 5 5 6 6 7 7 8 8 8 8 8 9 8 7 7 6 5 3 4 3 3 5 5 5 5 5 4
17 18 18 15 12 10 6 3 2 2 3 3 1 4 6 8 7 7 8 8 8 8 9 10 10 11 11 11 10 10 9 9 8 7 7 7 7 6 6 5 6 6 8 9 9 9 9 9 10 10 10 8 7 4 2 1 2 5 6 6 6 5 5
18 19 18 15 13 10 6 3 1 1 1 1 2 5 8 9 9 9 10 10 10 10 11 11 11 11 11 11 11 11 11 11 10 9 10 9 9 9 8 7 5 5 7 9 10 10 10 9 10 12 13 11 10 8 5 3 2 3 5 5 6 5 4
19 19 18 16 13 10 6 3 2 1 1 1 3 6 9 11 11 11 11 11 11 11 10 10 10 10 10 9 9 9 9 9 9 8 9 9 9 9 8 8 7 6 6 7 9 11 11 11 12 14 15 15 13 11 7 5 4 3 3 3 5 5 5
19 19 18 15 13 10 6 4 3 3 3 3 5 7 9 11 12 12 11 11 10 9 9 8 7 7 7 7 7 6 6 6 6 5 6 7 6 5 5 5 5 5 4 4 4 6 8 9 11 12 13 13 12 11 9 8 7 5 4 3 3 3 3
19 19 17 15 13 9 7 5 5 4 4 5 6 7 9 11 12 12 11 10 9 8 7 6 5 5 4 4 4 3 2 3 2 2 3 3 3 2 2 1 2 2 2 2 3 4 4 5 7 8 9 10 11 11 9 8 8 7 6 5 4 3 2
20 19 18 17 13 10 8 7 6 5 5 6 8 8 9 10 10 11 11 10 9 8 7 5 4 3 2 2 2 2 2 2 2 2 1 1 1 1 1 2 2 3 3 5 6 6 5 4 5 6 7 9 10 10 9 9 9 8 7 7 7 6 5
24 21 19 17 13 9 7 6 6 6 6 7 9 9 8 9 10 10 10 10 9 8 7 6 5 5 5 6 6 6 5 6 6 5 4 4 4 4 4 4 5 6 6 8 9 9 8 7 6 7 8 9 9 9 10 10 11 10 9 9 10 10 9
26 22 18 14 10 7 6 5 5 6 8 9 9 10 9 9 10 10 10 9 9 9 8 8 8 9 9 10 10 10 10 9 9 9 10 9 8 8 8 8 7 7 9 10 11 12 11 11 10 9 9 10 11 11 11 11 12 13 12 11 12 12 11
22 18 15 10 7 6 6 6 6 6 8 9 10 11 11 11 10 9 9 9 9 9 9 9 10 12 13 13 13 12 13 13 12 12 12 12 12 13 14 13 11 10 11 11 12 14 15 14 14 13 11 11 12 12 12 13 14 15 14 13 13 12 12
16 14 13 11 9 9 8 7 6 6 6 7 8 10 11 11 10 9 9 10 10 9 8 10 11 12 13 13 13 13 14 14 13 12 12 14 15 16 16 16 15 14 13 12 12 15 17 17 16 14 13 12 12 12 12 12 13 14 14 13 12 12 12
14 13 14 14 13 12 11 10 8 7 7 7 6 7 8 9 9 9 10 11 10 8 7 8 9 9 10 11 13 15 15 13 11 12 14 15 15 14 13 14 15 15 15 13 13 14 16 17 16 14 13 13 12 12 12 11 11 12 12 11 11 12 13
14 15 16 15 13 12 12 11 9 8 7 6 6 5 6 7 7 7 10 10 9 8 7 7 8 8 9 11 14 17 17 15 13 14 15 15 15 14 14 15 16 17 16 15 15 15 15 15 16 15 14 14 13 13 12 11 11 12 13 13 13 14 16
15 16 17 16 14 13 12 11 10 8 7 7 7 6 7 7 7 8 10 10 9 9 8 9 10 11 12 13 15 18 18 17 17 17 17 17 17 17 17 18 19 20 19 18 18 17 16 16 16 16 15 14 13 13 13 12 12 13 14 15 16 16 18
15 16 17 18 18 17 13 10 9 8 7 7 7 7 8 8 10 11 12 12 12 12 11 12 13 13 14 15 17 18 18 17 17 18 19 19 19 19 19 20 21 22 21 20 20 19 18 17 17 16 15 15 14 14 14 14 14 15 16 17 18 18 18
16 17 18 20 21 18 13 9 8 6 6 7 8 9 9 10 11 12 13 14 14 14 14 15 16 17 17 18 19 20 20 20 19 19 19 19 19 20 20 20 20 22 22 21 19 19 19 19 18 17 16 16 16 16 16 16 16 17 17 18 19 19 19
11 13 14 15 14 10 8 7 7 6 6 7 8 10 10 10 11 13 14 14 15 15 15 16 17 19 20 20 21 22 23 22 21 21 21 20 20 21 21 20 20 21 22 20 19 20 21 21 20 19 18 17 18 19 18 18 18 18 18 19 19 19 19
9 8 7 7 6 5 6 8 7 7 8 9 9 10 10 11 12 14 15 16 17 16 15 16 17 19 20 20 21 23 23 22 21 22 22 23 24 23 22 21 19 20 21 20 19 21 23 24 23 22 21 20 20 20 19 18 19 19 19 19 19 18 19
14 12 9 8 8 8 8 8 8 9 10 11 11 12 12 13 14 15 17 18 18 16 14 14 16 18 18 19 20 22 23 23 23 24 25 26 26 26 25 23 20 18 20 21 21 23 25 26 25 24 23 22 21 20 20 20 20 21 20 20 19 19 20
12 11 9 8 9 8 8 9 10 12 13 13 13 13 14 15 15 16 16 17 18 17 15 14 16 18 19 20 21 22 23 24 24 25 26 27 27 26 25 24 20 18 20 22 22 23 24 26 26 25 24 23 21 22 22 22 22 22 21 21 20 20 21
8 7 6 7 9 11 12 13 14 15 15 16 16 15 15 16 16 17 18 19 21 21 20 19 20 21 22 23 23 23 23 24 24 25 26 26 26 25 22 20 19 19 19 20 20 21 24 26 27 26 24 22 22 23 23 23 22 22 21 21 21 21 21
8 8 9 10 12 13 15 17 18 18 18 19 19 19 19 19 20 22 22 23 25 26 26 25 24 24 24 24 25 24 24 24 24 26 28 27 26 24 20 18 20 21 20 20 21 23 25 26 26 25 23 23 23 23 23 23 22 22 22 22 22 22 23
13 13 13 13 13 15 16 18 19 20 22 23 24 25 25 25 26 27 27 28 29 29 29 28 26 25 24 23 22 22 23 23 24 27 28 27 26 25 21 21 23 24 23 23 24 26 26 25 24 23 23 24 23 23 23 23 22 22 22 22 23 23 23
20 19 18 18 18 19 20 21 23 24 26 27 29 29 30 30 31 31 31 31 30 30 29 28 26 24 22 21 21 21 21 21 23 25 26 26 25 24 23 24 25 24 23 24 26 26 25 25 24 24 24 24 24 23 22 22 22 22 23 23 23 24 24
27 26 26 25 26 26 26 27 28 29 30 31 32 32 33 33 33 33 33 32 31 30 29 28 25 24 23 23 24 24 22 22 23 25 25 24 23 23 24 26 26 24 24 25 25 25 24 24 24 24 24 24 24 24 23 22 23 24 24 24 25 26 26
29 29 30 30 31 32 32 33 33 33 34 35 35 36 35 34 33 33 33 33 32 32 31 30 28 26 25 25 26 25 23 23 24 26 25 24 23 23 25 27 26 26 25 24 24 24 23 23 24 24 25 26 25 25 25 24 25 26 27 27 28 28 28
29 31 32 33 34 35 36 37 37 37 37 37 37 37 36 35 34 33 34 34 34 34 33 33 32 31 29 27 26 26 23 22 25 26 26 25 25 25 26 28 28 27 25 24 24 24 24 24 25 26 27 27 26 26 26 26 28 29 30 30 30 29 29
33 34 35 36 37 38 38 39 40 41 41 40 40 39 38 38 37 36 36 35 35 35 35 34 32 31 30 29 27 26 25 24 26 28 28 28 27 27 28 28 27 27 26 26 26 27 27 27 27 27 27 27 27 27 28 30 30 30 30 29 29 29 30
Wind_Direction
170 160 150 138 125 104 86 75 69 64 56 45 28 24 28 21 15 12 9 13 21 216 214 204 206 221 234 243 242 231 229 231 226 214 211 216 216 218 219 217 220 217 213 213 207 206 199 174 160 163 179 190 189 189 186 180 171 160 165 156 144 146 148
184 176 165 148 132 108 85 76 68 58 55 54 37 25 28 22 13 11 4 5 32 121 213 204 196 215 227 236 246 246 245 251 248 226 216 226 230 228 223 216 214 207 205 206 202 201 198 188 166 154 161 176 180 181 172 159 157 158 163 157 144 148 153
200 193 180 161 143 118 91 78 59 45 40 43 45 46 44 31 12 6 0 2 29 110 207 202 191 217 222 223 232 237 243 252 257 244 227 227 233 236 229 215 210 207 204 201 197 206 204 190 161 148 152 162 167 176 172 161 166 172 168 164 154 155 162
211 210 200 182 170 146 97 50 30 28 28 27 37 108 84 60 22 4 2 1 18 55 117 189 200 221 215 208 213 220 233 243 250 245 233 224 223 229 224 205 198 198 197 201 207 220 223 212 183 161 157 159 163 174 179 175 172 167 163 164 161 161 171
217 223 219 214 223 242 313 3 15 23 27 41 124 170 129 92 53 13 5 3 10 36 55 57 53 77 88 112 145 162 187 213 237 244 240 233 228 229 225 214 208 201 192 196 203 204 198 185 182 176 164 159 161 163 167 174 171 169 178 179 178 183 189
226 232 234 240 250 265 301 346 14 28 39 93 143 136 135 110 74 32 13 10 10 33 60 71 73 75 82 90 96 93 103 127 169 213 229 229 228 233 234 227 216 209 200 190 172 148 150 165 178 183 168 154 151 152 160 163 152 159 190 191 185 199 203
235 241 244 246 257 273 295 336 9 30 39 86 151 135 125 115 83 44 23 20 23 44 71 85 88 92 94 98 97 97 107 130 154 168 184 192 200 215 224 212 193 189 192 183 163 147 153 172 185 194 186 164 155 157 163 159 147 141 151 157 154 177 187
239 246 247 249 259 271 287 328 8 28 25 32 131 156 141 124 106 77 58 46 45 57 75 88 94 96 98 102 101 106 118 136 154 160 161 160 163 168 173 177 176 177 185 187 178 170 171 179 182 187 235 244 213 173 158 150 145 142 147 159 169 185 190
238 243 245 248 254 262 278 319 9 22 9 13 62 151 154 146 136 115 96 82 74 71 77 87 94 97 99 103 109 117 127 135 144 142 136 140 146 150 154 160 169 173 175 181 190 194 194 194 192 188 235 274 295 337 73 98 118 126 148 178 168 168 175
236 239 240 242 246 254 269 309 3 16 11 11 43 139 153 158 147 125 109 97 88 84 87 92 96 99 99 100 103 108 115 120 125 128 127 131 137 143 146 151 159 161 158 163 178 195 203 206 206 199 205 244 291 341 29 50 110 131 143 153 140 136 143
229 232 234 236 240 247 259 288 337 357 9 16 66 137 153 156 142 124 112 103 99 95 96 96 97 98 97 98 99 100 101 99 97 102 107 111 115 119 124 136 155 161 155 154 162 177 195 205 205 199 200 221 257 272 312 342 183 150 141 146 142 142 145
224 225 228 231 235 240 246 252 268 310 347 34 104 134 150 149 134 121 113 106 105 103 102 101 100 98 98 99 98 97 97 93 91 92 93 93 93 96 103 113 131 155 163 161 159 163 180 201 205 200 199 211 235 244 249 281 249 165 149 152 148 149 146
220 222 224 228 231 232 232 222 216 221 182 140 132 138 148 147 134 123 116 112 111 109 107 106 104 101 99 98 94 91 91 89 89 87 85 84 84 89 97 104 112 126 147 159 162 163 171 190 203 206 204 209 226 237 239 267 273 215 190 177 161 160 152
219 222 225 225 225 226 222 212 207 193 162 153 149 144 151 153 143 132 125 121 119 116 113 111 109 106 100 97 93 87 87 88 88 85 83 84 84 88 96 102 109 118 128 143 164 175 176 182 195 206 209 210 223 233 234 249 258 245 239 235 205 176 153
219 224 225 221 221 223 217 207 199 182 167 162 156 150 157 163 158 148 142 139 136 134 131 127 125 121 113 114 114 111 117 110 104 102 92 91 98 101 106 115 133 151 163 185 214 215 195 183 187 199 210 213 220 232 240 247 251 251 255 260 263 259 218
220 225 223 219 220 222 212 204 197 187 178 174 169 162 161 168 173 169 164 161 160 160 161 165 171 171 184 208 207 213 222 226 231 214 169 137 156 181 227 261 266 257 247 246 253 251 234 217 201 197 213 225 227 233 242 248 253 258 261 266 271 267 257
221 222 219 218 219 219 208 197 197 190 181 181 181 176 172 174 180 182 182 184 187 189 193 200 213 225 235 241 244 246 248 251 254 253 245 233 231 236 241 253 268 270 264 259 263 267 262 252 237 216 223 241 248 246 245 247 252 255 255 260 267 267 264
216 212 213 220 219 210 200 193 199 190 179 185 189 186 187 189 187 188 191 195 202 208 215 223 235 243 247 249 251 253 255 256 257 260 259 255 255 258 257 258 264 271 271 266 263 264 264 259 253 243 239 248 255 257 255 255 257 258 257 256 259 263 264
213 204 201 206 201 191 196 203 211 201 187 190 193 192 196 199 199 201 204 209 212 215 223 232 238 243 247 251 253 251 250 251 252 256 264 273 277 277 275 272 268 269 274 273 263 257 256 256 254 252 249 249 251 255 258 260 262 264 262 261 263 267 270
215 209 192 184 185 184 189 200 215 216 203 198 197 196 201 207 212 215 220 226 228 228 233 240 244 248 251 254 255 249 246 249 256 263 272 279 283 284 283 279 272 268 271 275 269 258 252 252 253 252 249 248 248 248 250 255 260 262 261 260 263 267 273
207 207 191 182 186 188 190 196 208 214 210 209 207 202 205 212 219 226 233 238 245 250 249 248 253 256 256 256 255 254 254 257 265 273 275 276 279 279 278 277 274 272 271 271 268 261 252 249 249 249 247 248 246 241 239 243 250 257 262 264 265 268 273
205 201 192 184 186 194 198 201 210 219 218 218 216 208 208 217 224 235 245 251 261 266 258 250 253 257 255 253 254 258 262 264 267 275 280 282 282 279 274 275 278 281 280 272 265 259 251 246 247 247 244 243 239 236 239 244 248 255 264 268 270 273 277
202 197 191 185 188 198 200 201 209 218 223 224 222 216 216 224 234 245 256 263 268 267 258 252 255 260 262 261 262 265 268 268 269 275 281 284 284 282 280 280 281 283 283 277 267 257 247 241 241 241 238 236 235 237 244 250 253 257 263 267 271 274 277
193 193 193 191 194 195 190 195 208 216 228 239 245 246 242 243 248 253 259 263 264 261 256 253 255 262 267 269 270 272 274 275 274 275 278 281 284 284 283 282 281 281 281 277 266 252 241 234 232 231 231 235 240 246 249 251 254 258 264 269 271 273 275
184 187 190 192 195 188 176 186 210 223 239 252 262 269 269 265 262 262 264 265 266 264 259 255 256 260 265 269 272 274 276 278 279 280 282 283 284 283 283 282 281 279 277 272 260 245 233 226 224 224 229 238 246 252 253 256 259 263 266 268 269 271 274
173 179 179 183 190 179 166 187 213 231 245 258 269 275 280 279 273 270 269 268 269 269 268 264 259 258 261 265 269 273 276 279 282 285 288 288 287 284 282 281 280 277 272 264 254 239 226 221 222 224 229 238 246 252 255 259 264 266 266 266 267 270 274
179 189 189 196 207 201 196 207 222 237 246 254 261 266 272 274 272 270 271 272 271 271 272 270 265 262 263 266 268 271 274 277 280 283 286 288 288 287 285 282 277 272 265 255 243 230 220 219 224 229 235 241 246 252 258 263 267 268 268 267 266 268 271
192 199 206 219 227 225 222 224 231 240 246 250 253 257 261 265 267 268 270 273 274 272 268 266 266 266 267 268 269 270 272 273 275 278 280 282 283 284 286 285 278 266 254 242 231 224 221 222 229 237 242 244 247 254 261 265 267 269 270 270 269 269 272
210 212 218 235 247 253 252 250 249 251 254 254 254 255 256 257 260 263 266 270 274 275 271 265 266 269 270 271 272 273 275 275 275 276 277 278 279 281 285 285 277 258 242 232 225 221 222 226 234 241 245 244 248 254 259 261 264 267 270 272 274 275 277
238 243 253 266 275 277 274 271 269 267 265 262 259 256 255 255 258 261 265 270 273 275 275 272 270 271 272 274 276 277 279 279 278 277 276 277 278 280 281 278 265 245 229 223 221 220 224 231 237 242 243 244 247 251 255 259 264 269 273 276 278 280 282
264 270 275 278 280 280 277 275 272 269 267 267 265 262 260 260 261 264 268 271 274 275 276 275 274 273 272 272 274 275 276 277 276 276 276 278 280 279 273 260 249 238 228 226 228 227 228 232 236 239 241 243 246 250 256 263 269 273 277 279 281 284 285
272 273 272 271 272 272 271 270 268 267 268 269 269 269 267 266 265 266 267 269 272 275 277 277 276 275 274 272 272 273 273 274 274 274 275 277 278 276 266 251 244 240 234 232 233 233 232 232 233 236 240 243 247 252 257 264 270 274 278 280 282 284 286
272 269 264 260 259 260 261 262 264 266 268 270 271 272 273 273 273 272 271 270 270 271 272 272 272 272 271 272 275 277 277 276 275 274 275 275 274 271 262 250 244 240 235 232 232 233 234 234 234 237 241 246 250 255 259 265 270 274 277 280 283 286 289
270 269 266 262 259 259 260 263 265 265 266 267 269 270 271 272 274 275 275 274 273 272 271 269 267 267 268 272 277 278 278 277 275 275 276 274 272 267 259 250 246 242 238 234 234 234 236 238 240 243 247 251 255 258 262 267 270 274 277 280 284 287 289
268 268 266 263 262 261 263 264 265 264 264 264 266 267 267 267 268 270 273 275 276 275 273 271 269 267 269 274 277 278 278 275 273 273 274 273 269 264 255 247 243 241 238 235 236 238 240 243 247 251 254 256 259 262 266 270 273 277 280 282 285 287 288
265 265 264 263 263 262 262 263 264 264 264 263 263 263 263 264 264 266 268 271 273 274 273 273 272 270 271 275 277 277 275 270 267 269 271 270 265 261 254 244 235 231 232 234 237 240 243 247 250 253 256 259 262 267 272 278 282 284 284 285 286 286 286
265 266 265 265 265 264 263 263 264 264 264 264 262 261 261 262 263 264 265 266 267 268 270 270 269 267 269 273 275 273 270 263 260 261 263 263 260 258 257 251 238 228 227 231 236 239 242 246 249 253 258 263 269 276 283 287 288 287 285 284 284 284 286
Height
3150 3150 3150 3150 3150 3150 3149 3149 3149 3150 3150 3150 3150 3150 3150 3150 3149 3149 3149 3149 3149 3149 3149 3150 3150 3151 3151 3152 3153 3153 3154 3155 3156 3157 3157 3157 3157 3157 3157 3158 3158 3158 3158 3158 3158 3159 3160 3161 3162 3162 3161 3161 3162 3162 3162 3163 3163 3164 3164 3164 3164 3164 3163
3149 3149 3149 3149 3149 3149 3148 3148 3149 3149 3149 3149 3150 3150 3150 3150 3149 3148 3148 3148 3149 3149 3149 3150 3150 3151 3151 3152 3152 3153 3153 3153 3154 3155 3156 3156 3156 3156 3157 3157 3158 3158 3158 3157 3158 3158 3159 3160 3161 3162 3162 3161 3161 3161 3162 3162 3163 3163 3163 3163 3163 3163 3163
3148 3148 3148 3148 3148 3148 3148 3148 3148 3148 3148 3148 3149 3150 3150 3149 3148 3148 3147 3148 3148 3149 3149 3149 3150 3151 3151 3152 3152 3152 3153 3153 3154 3154 3155 3155 3155 3155 3156 3157 3157 3157 3157 3157 3157 3158 3159 3160 3160 3161 3162 3162 3162 3162 3162 3162 3163 3163 3163 3164 3164 3163 3163
3147 3147 3147 3147 3147 3147 3148 3148 3147 3147 3147 3147 3148 3148 3149 3149 3148 3148 3147 3147 3148 3148 3149 3149 3150 3150 3151 3151 3152 3152 3153 3153 3154 3154 3154 3155 3155 3155 3155 3156 3156 3156 3156 3156 3157 3158 3159 3159 3160 3160 3161 3162 3162 3162 3163 3163 3163 3163 3164 3164 3163 3163 3163
3146 3146 3146 3147 3147 3147 3147 3147 3147 3147 3147 3147 3146 3147 3147 3148 3148 3147 3147 3147 3147 3148 3149 3149 3149 3150 3151 3151 3151 3152 3152 3153 3153 3153 3153 3154 3155 3155 3155 3155 3155 3156 3156 3157 3158 3159 3159 3159 3159 3160 3160 3161 3162 3163 3164 3163 3163 3163 3163 3163 3163 3163 3162
3144 3144 3145 3145 3146 3146 3146 3146 3146 3146 3146 3146 3146 3146 3146 3147 3147 3147 3147 3147 3148 3148 3149 3149 3150 3150 3151 3151 3151 3151 3152 3153 3153 3153 3153 3154 3154 3155 3155 3155 3156 3156 3156 3157 3159 3159 3159 3159 3159 3159 3159 3160 3162 3164 3164 3164 3164 3163 3163 3163 3162 3162 3162
3142 3143 3143 3144 3145 3145 3145 3145 3145 3145 3145 3145 3145 3145 3145 3146 3146 3146 3147 3147 3148 3148 3149 3150 3150 3151 3151 3151 3152 3152 3152 3153 3153 3154 3154 3154 3155 3155 3155 3156 3157 3157 3157 3158 3159 3159 3159 3159 3159 3159 3159 3160 3162 3164 3164 3164 3164 3164 3163 3163 3162 3162 3161
3140 3141 3141 3142 3143 3144 3144 3144 3144 3144 3144 3144 3145 3145 3145 3145 3146 3146 3146 3147 3148 3148 3149 3150 3150 3151 3152 3152 3153 3153 3153 3154 3154 3154 3155 3155 3155 3156 3156 3156 3157 3157 3158 3158 3158 3158 3158 3158 3158 3158 3157 3158 3160 3162 3162 3163 3163 3163 3163 3162 3162 3162 3161
3138 3139 3139 3140 3141 3142 3143 3144 3143 3143 3143 3143 3144 3144 3144 3145 3145 3145 3146 3147 3148 3148 3149 3150 3151 3151 3152 3153 3153 3153 3154 3154 3154 3155 3155 3155 3156 3156 3156 3156 3157 3157 3158 3158 3158 3158 3158 3158 3158 3157 3157 3157 3158 3159 3159 3160 3161 3162 3162 3162 3162 3161 3161
3137 3137 3138 3139 3140 3141 3142 3143 3143 3142 3142 3142 3142 3143 3144 3144 3145 3145 3146 3147 3148 3148 3149 3150 3151 3152 3152 3153 3154 3154 3154 3154 3155 3155 3156 3156 3156 3156 3156 3156 3156 3157 3158 3158 3158 3158 3158 3158 3158 3157 3157 3156 3157 3158 3158 3159 3161 3162 3162 3161 3161 3161 3160
3136 3137 3137 3138 3139 3140 3141 3142 3142 3141 3141 3141 3142 3143 3143 3144 3144 3145 3146 3147 3148 3149 3150 3151 3151 3152 3153 3154 3154 3155 3155 3155 3155 3156 3156 3156 3157 3157 3157 3157 3157 3157 3157 3157 3158 3158 3158 3158 3158 3157 3157 3157 3157 3158 3159 3160 3161 3162 3162 3161 3161 3161 3160
3134 3135 3137 3138 3139 3140 3140 3141 3140 3140 3141 3141 3141 3142 3143 3143 3144 3145 3146 3147 3148 3149 3150 3151 3152 3153 3154 3154 3155 3156 3156 3156 3156 3157 3157 3157 3157 3157 3158 3158 3158 3157 3157 3157 3157 3157 3157 3158 3158 3157 3158 3158 3158 3159 3160 3160 3160 3161 3161 3160 3160 3160 3160
3133 3135 3136 3137 3138 3139 3139 3140 3139 3140 3140 3140 3141 3142 3142 3143 3144 3145 3146 3147 3149 3150 3151 3152 3153 3154 3154 3155 3156 3157 3157 3157 3157 3157 3157 3158 3158 3158 3158 3158 3158 3158 3158 3158 3158 3157 3157 3157 3157 3157 3158 3159 3159 3159 3160 3160 3159 3159 3160 3160 3160 3160 3160
3132 3134 3135 3136 3137 3138 3138 3139 3139 3139 3139 3140 3141 3142 3142 3143 3144 3145 3146 3147 3149 3150 3151 3152 3153 3154 3155 3156 3157 3157 3158 3158 3158 3158 3158 3158 3158 3158 3158 3159 3159 3159 3159 3158 3158 3158 3158 3158 3158 3158 3159 3160 3160 3159 3160 3160 3159 3159 3159 3159 3159 3159 3160
3132 3133 3134 3135 3136 3137 3137 3138 3138 3138 3139 3140 3141 3141 3142 3143 3144 3145 3146 3147 3149 3150 3151 3152 3153 3154 3155 3156 3157 3157 3158 3158 3158 3158 3159 3159 3159 3158 3158 3159 3159 3159 3159 3159 3158 3158 3159 3159 3158 3158 3159 3160 3160 3160 3160 3160 3159 3159 3159 3159 3158 3159 3159
3131 3132 3133 3134 3136 3136 3137 3137 3138 3138 3139 3140 3140 3141 3142 3143 3144 3145 3146 3147 3148 3149 3151 3152 3153 3154 3155 3155 3156 3157 3157 3157 3157 3158 3158 3158 3158 3158 3158 3158 3159 3159 3159 3158 3157 3157 3158 3159 3159 3159 3158 3158 3159 3159 3159 3159 3159 3159 3159 3158 3158 3158 3158
3129 3130 3132 3134 3135 3136 3137 3137 3138 3138 3139 3139 3140 3141 3142 3143 3144 3145 3146 3147 3147 3148 3150 3151 3152 3153 3154 3155 3155 3156 3156 3156 3156 3156 3156 3157 3157 3157 3157 3157 3157 3158 3158 3158 3157 3157 3157 3158 3158 3158 3158 3157 3157 3158 3158 3158 3157 3157 3158 3158 3157 3156 3156
3126 3129 3132 3134 3136 3137 3138 3138 3138 3138 3138 3139 3139 3140 3141 3142 3143 3144 3145 3145 3146 3148 3149 3150 3152 3152 3153 3153 3154 3155 3155 3155 3155 3154 3154 3154 3155 3155 3155 3156 3156 3156 3156 3156 3156 3155 3155 3155 3156 3157 3157 3156 3155 3155 3156 3156 3155 3155 3156 3156 3155 3155 3155
3127 3129 3132 3135 3136 3137 3137 3138 3138 3138 3138 3138 3139 3140 3140 3141 3142 3143 3143 3144 3145 3146 3148 3149 3150 3150 3151 3151 3152 3153 3153 3153 3153 3153 3152 3152 3153 3152 3152 3153 3154 3154 3153 3153 3153 3153 3152 3152 3153 3154 3155 3155 3154 3153 3153 3153 3153 3152 3153 3153 3153 3153 3152
3129 3131 3133 3134 3134 3134 3135 3136 3137 3138 3138 3138 3139 3139 3140 3140 3141 3141 3142 3143 3144 3145 3146 3147 3147 3148 3149 3150 3150 3150 3150 3151 3151 3152 3152 3151 3150 3150 3150 3150 3150 3150 3150 3151 3151 3150 3150 3150 3150 3151 3152 3153 3152 3152 3151 3151 3150 3150 3150 3150 3151 3151 3150
3128 3131 3132 3133 3132 3133 3133 3134 3135 3136 3137 3138 3138 3138 3139 3139 3139 3140 3140 3141 3142 3144 3145 3145 3146 3146 3147 3148 3148 3147 3147 3149 3150 3150 3149 3148 3148 3148 3148 3147 3147 3146 3147 3148 3148 3147 3147 3148 3148 3149 3150 3150 3150 3150 3150 3149 3149 3148 3148 3148 3149 3149 3149
3127 3129 3131 3131 3131 3132 3132 3133 3134 3135 3136 3137 3137 3137 3137 3138 3138 3138 3138 3139 3141 3142 3143 3144 3144 3145 3145 3146 3145 3144 3145 3147 3148 3147 3147 3146 3146 3146 3146 3145 3145 3144 3144 3145 3145 3145 3145 3145 3146 3146 3147 3148 3148 3148 3148 3148 3148 3147 3146 3146 3147 3147 3146
3126 3128 3129 3130 3130 3130 3130 3131 3132 3133 3134 3135 3136 3136 3136 3137 3137 3137 3137 3138 3139 3140 3141 3142 3142 3142 3142 3143 3142 3142 3143 3144 3144 3144 3144 3144 3143 3143 3143 3143 3142 3142 3142 3142 3142 3142 3143 3143 3143 3144 3144 3145 3146 3146 3146 3146 3146 3146 3145 3144 3144 3144 3143
3124 3126 3128 3128 3129 3129 3129 3129 3131 3132 3133 3133 3134 3134 3135 3135 3135 3135 3135 3136 3136 3137 3139 3139 3139 3139 3139 3139 3139 3139 3139 3140 3141 3141 3141 3141 3140 3140 3140 3140 3139 3139 3139 3139 3139 3139 3140 3140 3141 3141 3142 3143 3143 3144 3144 3145 3145 3144 3143 3142 3141 3141 3141
3123 3125 3126 3127 3128 3127 3126 3127 3129 3130 3131 3131 3132 3132 3133 3133 3133 3133 3134 3134 3134 3135 3136 3136 3137 3136 3136 3136 3136 3136 3136 3136 3137 3137 3137 3137 3137 3137 3137 3137 3137 3136 3136 3135 3135 3136 3137 3137 3138 3139 3139 3140 3141 3141 3142 3142 3142 3142 3141 3140 3139 3139 3138
3121 3123 3123 3123 3124 3122 3122 3125 3127 3128 3129 3129 3129 3130 3130 3131 3131 3131 3132 3132 3133 3133 3134 3134 3134 3134 3133 3133 3133 3132 3132 3133 3133 3133 3132 3133 3133 3133 3133 3133 3133 3133 3132 3132 3132 3133 3134 3135 3135 3136 3137 3137 3138 3138 3139 3140 3139 3139 3139 3138 3138 3137 3136
3118 3119 3119 3119 3119 3119 3121 3123 3125 3126 3126 3127 3127 3128 3128 3129 3129 3129 3129 3129 3130 3131 3131 3132 3132 3131 3131 3131 3130 3130 3129 3129 3129 3129 3128 3128 3128 3128 3129 3129 3129 3129 3129 3128 3129 3129 3131 3132 3132 3133 3134 3134 3135 3136 3136 3137 3136 3136 3136 3136 3135 3134 3133
3115 3116 3116 3116 3117 3118 3119 3121 3122 3123 3124 3125 3125 3126 3126 3127 3127 3127 3126 3126 3126 3127 3128 3129 3129 3129 3128 3128 3128 3127 3126 3126 3126 3125 3125 3125 3124 3124 3125 3125 3125 3125 3125 3125 3125 3127 3128 3129 3130 3130 3131 3132 3133 3133 3133 3133 3133 3133 3133 3132 3132 3131 3130
3113 3114 3114 3114 3114 3115 3116 3117 3119 3120 3121 3122 3123 3123 3124 3124 3124 3124 3124 3123 3123 3124 3125 3126 3126 3126 3126 3126 3125 3124 3123 3123 3122 3122 3121 3121 3121 3121 3121 3121 3121 3121 3122 3122 3122 3124 3125 3126 3126 3127 3128 3129 3130 3130 3130 3130 3130 3130 3130 3129 3128 3128 3127
3111 3111 3112 3112 3112 3113 3113 3114 3115 3116 3117 3118 3119 3120 3120 3121 3121 3121 3121 3121 3120 3120 3121 3122 3123 3123 3122 3122 3121 3121 3120 3119 3119 3118 3117 3117 3117 3118 3118 3117 3118 3118 3118 3119 3120 3121 3122 3122 3123 3124 3125 3126 3126 3126 3126 3126 3127 3126 3126 3126 3125 3124 3123
3109 3109 3109 3110 3110 3110 3110 3110 3111 3112 3113 3113 3114 3115 3116 3117 3117 3117 3117 3117 3117 3117 3117 3118 3118 3119 3119 3118 3117 3117 3116 3116 3115 3114 3114 3113 3114 3114 3114 3114 3115 3116 3116 3117 3118 3119 3119 3120 3120 3121 3122 3122 3122 3123 3123 3123 3123 3123 3123 3122 3121 3121 3120
3107 3108 3108 3107 3107 3107 3107 3107 3108 3108 3109 3109 3109 3110 3111 3112 3112 3113 3113 3114 3113 3113 3113 3113 3113 3113 3114 3114 3113 3113 3113 3112 3112 3111 3110 3110 3111 3110 3110 3110 3111 3112 3113 3114 3114 3115 3116 3117 3117 3118 3118 3119 3119 3119 3120 3120 3120 3119 3119 3119 3118 3117 3116
3104 3105 3105 3105 3105 3105 3105 3105 3105 3105 3105 3105 3105 3105 3105 3106 3106 3107 3108 3109 3109 3109 3109 3109 3109 3109 3109 3109 3109 3109 3108 3108 3107 3107 3106 3107 3107 3107 3107 3107 3108 3109 3110 3110 3111 3111 3112 3113 3114 3115 3115 3116 3116 3116 3116 3116 3116 3116 3116 3115 3114 3113 3112
3100 3101 3101 3102 3102 3102 3102 3102 3102 3102 3102 3101 3101 3101 3101 3101 3100 3100 3101 3102 3103 3104 3104 3104 3105 3105 3105 3105 3104 3104 3104 3104 3103 3102 3103 3103 3104 3104 3104 3104 3105 3106 3106 3107 3107 3108 3108 3109 3110 3111 3111 3112 3113 3113 3113 3113 3113 3112 3112 3111 3111 3110 3108
3096 3096 3096 3097 3097 3098 3098 3097 3097 3097 3097 3097 3096 3096 3096 3096 3096 3096 3095 3095 3096 3097 3097 3098 3099 3100 3100 3100 3100 3100 3100 3100 3098 3098 3099 3099 3100 3101 3101 3100 3101 3102 3103 3103 3104 3104 3105 3105 3106 3107 3108 3108 3109 3109 3109 3110 3109 3109 3108 3107 3107 3106 3104
3090 3090 3091 3091 3091 3091 3092 3092 3091 3091 3091 3091 3091 3091 3090 3090 3091 3091 3091 3090 3091 3091 3091 3091 3092 3093 3094 3094 3095 3095 3095 3095 3094 3094 3095 3096 3096 3097 3097 3097 3097 3098 3099 3100 3101 3101 3102 3102 3103 3103 3104 3104 3105 3105 3105 3105 3105 3105 3104 3103 3102 3101 3099
3085 3085 3085 3084 3084 3085 3085 3085 3085 3085 3084 3084 3084 3084 3084 3084 3085 3085 3085 3085 3085 3085 3085 3085 3086 3087 3088 3089 3089 3090 3091 3091 3090 3090 3091 3092 3093 3094 3094 3094 3094 3095 3096 3097 3097 3098 3098 3099 3099 3099 3100 3100 3100 3100 3100 3100 3100 3100 3099 3098 3097 3096 3095